Date String (YYYY-MM-DD hh:mm:ss) UTC,Instrument flags,Ambient pressure (hPa),Sample flow (lpm),Bypass flow (lpm),Sample temperature (°C),Ambient temperature (°C),ASC tube jacket temperature (°C),LED temperature (°C),Box temperature (°C),Sample RH (%),Span deviation,Mass concentration (μg/m³),Mass concentration (μg/m³),Mass concentration (μg/m³)
DateTimeUTC,F1_M11,P_M11,Q1_M11,Q2_M11,T1_M11,T2_M11,T3_M11,T4_M11,T5_M11,U1_M11,ZSPAN_M11,X0_M11,X2_M11,X1_M11
2022-12-06 00:00:00,,0817.7,5.00,0.00,24.7,23.2,00.0,33.7,26.6,16.0,-003.4,0010.92,0004.79,0004.02
2022-12-06 00:01:00,,0817.7,5.00,0.00,24.7,23.2,00.0,33.6,26.6,16.0,-003.3,0012.57,0004.80,0004.02
2022-12-06 00:02:00,,0817.7,5.00,0.00,24.7,23.1,00.0,33.6,26.6,16.0,-002.5,0012.83,0004.81,0004.01
2022-12-06 00:03:00,,0817.7,5.00,0.00,24.7,23.1,00.0,33.6,26.5,16.0,-002.1,0012.73,0004.77,0004.00
2022-12-06 00:04:00,,0817.7,5.01,0.00,24.6,23.1,00.0,33.6,26.5,16.0,-001.2,0012.11,0004.75,0004.00
2022-12-06 00:05:00,,0817.8,5.01,0.00,24.6,23.1,00.0,33.6,26.5,16.0,0000.4,0012.42,0004.78,0004.02
2022-12-06 00:06:00,,0817.7,5.00,0.00,24.6,23.1,00.0,33.6,26.5,16.0,0000.7,0012.53,0004.77,0004.01
2022-12-06 00:07:00,,0817.7,5.00,0.00,24.6,23.1,00.0,33.6,26.5,16.0,0001.0,0013.18,0004.78,0004.00
2022-12-06 00:08:00,,0817.8,4.99,0.00,24.6,23.1,00.0,33.6,26.5,16.0,0001.2,0013.31,0004.75,0003.98
2022-12-06 00:09:00,,0817.8,4.99,0.00,24.6,23.1,00.0,33.6,26.5,16.0,0000.8,0013.14,0004.69,0003.96
2022-12-06 00:10:00,,0817.9,5.00,0.00,24.6,23.1,00.0,33.6,26.5,16.0,0000.0,0013.31,0004.68,0003.95
2022-12-06 00:11:00,,0817.9,5.00,0.00,24.6,23.1,00.0,33.6,26.5,16.0,0000.0,0012.52,0004.68,0003.95
2022-12-06 00:12:00,,0817.8,5.00,0.00,24.6,23.0,00.0,33.6,26.5,16.0,0000.0,0010.55,0004.64,0003.93
2022-12-06 00:13:00,,0817.9,5.00,0.00,24.6,23.0,00.0,33.6,26.4,16.1,0000.0,0010.49,0004.60,0003.92
2022-12-06 00:14:00,,0817.9,5.00,0.00,24.6,23.0,00.0,33.6,26.5,16.1,0000.0,0010.55,0004.60,0003.91
2022-12-06 00:15:00,,0817.9,5.00,0.00,24.6,23.0,00.0,33.6,26.5,16.1,0000.0,0010.66,0004.62,0003.90
2022-12-06 00:16:00,,0817.8,5.01,0.00,24.6,23.1,00.0,33.6,26.5,16.1,0000.0,0011.04,0004.60,0003.89
2022-12-06 00:17:00,,0817.8,5.01,0.00,24.6,23.1,00.0,33.6,26.5,16.1,0000.0,0011.35,0004.58,0003.88
2022-12-06 00:18:00,,0817.9,5.01,0.00,24.6,23.1,00.0,33.6,26.5,16.1,0000.0,0011.22,0004.56,0003.87
2022-12-06 00:19:00,,0817.9,5.00,0.00,24.6,23.0,00.0,33.6,26.5,16.1,0000.0,0011.00,0004.56,0003.86
2022-12-06 00:20:00,,0817.9,5.00,0.00,24.6,23.0,00.0,33.5,26.4,16.1,0000.0,0010.99,0004.59,0003.86
2022-12-06 00:21:00,,0817.9,5.01,0.00,24.6,23.0,00.0,33.5,26.4,16.1,0000.0,0010.43,0004.57,0003.85
2022-12-06 00:22:00,,0817.9,5.00,0.00,24.6,23.1,00.0,33.5,26.5,16.1,0000.0,0010.80,0004.59,0003.83
2022-12-06 00:23:00,,0817.9,5.00,0.00,24.6,23.1,00.0,33.5,26.5,16.1,0000.0,0011.57,0004.63,0003.83
2022-12-06 00:24:00,,0817.8,5.00,0.00,24.6,23.1,00.0,33.5,26.5,16.1,0000.0,0012.35,0004.65,0003.84
2022-12-06 00:25:00,,0817.8,5.00,0.00,24.6,23.0,00.0,33.5,26.5,16.1,0000.0,0012.44,0004.67,0003.85
2022-12-06 00:26:00,,0817.8,5.00,0.00,24.6,22.9,00.0,33.5,26.4,16.1,0000.0,0012.36,0004.65,0003.84
2022-12-06 00:27:00,,0817.8,5.00,0.00,24.5,22.9,00.0,33.5,26.4,16.1,0000.0,0011.78,0004.64,0003.83
2022-12-06 00:28:00,,0817.9,4.99,0.00,24.5,22.9,00.0,33.5,26.4,16.1,0000.0,0012.26,0004.65,0003.83
2022-12-06 00:29:00,,0817.9,5.00,0.00,24.5,22.8,00.0,33.5,26.4,16.1,0000.0,0012.28,0004.68,0003.83
2022-12-06 00:30:00,,0817.9,5.00,0.00,24.5,22.8,00.0,33.5,26.3,16.2,0000.0,0012.72,0004.69,0003.83
2022-12-06 00:31:00,,0817.9,5.00,0.00,24.5,22.9,00.0,33.5,26.4,16.2,0000.0,0013.79,0004.67,0003.82
2022-12-06 00:32:00,,0818.0,5.00,0.00,24.5,22.9,00.0,33.5,26.4,16.2,0000.0,0014.07,0004.69,0003.81
2022-12-06 00:33:00,,0817.9,5.00,0.00,24.5,22.8,00.0,33.5,26.3,16.2,0000.0,0013.90,0004.67,0003.81
2022-12-06 00:34:00,,0818.0,5.00,0.00,24.5,22.8,00.0,33.5,26.3,16.2,0000.0,0014.37,0004.64,0003.80
2022-12-06 00:35:00,,0817.9,5.00,0.00,24.5,22.8,00.0,33.5,26.3,16.3,0000.0,0013.31,0004.63,0003.78
2022-12-06 00:36:00,,0818.0,5.00,0.00,24.4,22.7,00.0,33.5,26.3,16.3,0000.0,0013.32,0004.57,0003.77
2022-12-06 00:37:00,,0818.0,4.99,0.00,24.4,22.7,00.0,33.4,26.3,16.3,0000.0,0013.61,0004.56,0003.76
2022-12-06 00:38:00,,0818.0,5.00,0.00,24.4,22.6,00.0,33.4,26.2,16.3,0000.0,0013.77,0004.57,0003.75
2022-12-06 00:39:00,,0818.0,5.01,0.00,24.4,22.6,00.0,33.4,26.2,16.2,0000.0,0012.75,0004.52,0003.73
2022-12-06 00:40:00,,0818.0,5.00,0.00,24.4,22.7,00.0,33.4,26.3,16.3,0000.0,0012.48,0004.45,0003.70
2022-12-06 00:41:00,,0818.0,5.00,0.00,24.4,22.7,00.0,33.4,26.3,16.3,0000.0,0011.98,0004.41,0003.69
2022-12-06 00:42:00,,0818.0,5.00,0.00,24.4,22.7,00.0,33.4,26.2,16.3,0000.0,0011.59,0004.42,0003.68
2022-12-06 00:43:00,,0818.0,4.99,0.00,24.4,22.7,00.0,33.4,26.3,16.4,0002.4,0011.68,0004.42,0003.68
2022-12-06 00:44:00,,0818.0,4.99,0.00,24.4,22.8,00.0,33.4,26.3,16.4,0002.8,0011.70,0004.45,0003.69
2022-12-06 00:45:00,,0817.9,5.01,0.00,24.4,22.8,00.0,33.4,26.3,16.4,0004.0,0010.79,0004.49,0003.70
2022-12-06 00:46:00,,0817.9,5.01,0.00,24.4,22.8,00.0,33.4,26.3,16.2,0003.5,0010.78,0004.48,0003.68
2022-12-06 00:47:00,,0817.9,5.00,0.00,24.4,22.7,00.0,33.4,26.2,16.2,0000.0,0011.22,0004.47,0003.67
2022-12-06 00:48:00,,0817.8,4.99,0.00,24.3,22.7,00.0,33.3,26.2,16.2,0000.0,0010.83,0004.45,0003.67
2022-12-06 00:49:00,,0817.8,5.00,0.00,24.3,22.7,00.0,33.3,26.1,16.3,0000.0,0011.21,0004.45,0003.67
2022-12-06 00:50:00,,0817.8,5.00,0.00,24.3,22.6,00.0,33.3,26.1,16.3,0000.0,0011.49,0004.47,0003.67
2022-12-06 00:51:00,,0817.9,5.02,0.00,24.3,22.5,00.0,33.3,26.1,16.3,0000.0,0011.41,0004.49,0003.68
2022-12-06 00:52:00,,0817.9,5.00,0.00,24.3,22.5,00.0,33.3,26.1,16.3,0000.0,0011.27,0004.47,0003.67
2022-12-06 00:53:00,,0817.8,4.98,0.00,24.3,22.4,00.0,33.3,26.1,16.4,0000.0,0010.41,0004.45,0003.66
2022-12-06 00:54:00,,0817.9,5.00,0.00,24.2,22.4,00.0,33.3,26.0,16.3,0000.0,0009.97,0004.43,0003.64
2022-12-06 00:55:00,,0817.8,5.01,0.00,24.2,22.3,00.0,33.3,26.0,16.3,0000.0,0009.86,0004.40,0003.61
2022-12-06 00:56:00,,0817.8,5.00,0.00,24.2,22.3,00.0,33.3,25.9,16.4,0000.0,0009.75,0004.35,0003.57
2022-12-06 00:57:00,,0817.8,5.00,0.00,24.1,22.2,00.0,33.2,25.9,16.4,0000.0,0009.64,0004.30,0003.55
2022-12-06 00:58:00,,0817.9,5.00,0.00,24.1,22.1,00.0,33.2,25.9,16.4,0000.0,0008.88,0004.26,0003.54
2022-12-06 00:59:00,,0817.9,5.00,0.00,24.1,22.1,00.0,33.2,25.9,16.4,0000.0,0009.13,0004.27,0003.52
